Location: Utrecht
(52.0907°N, 5.1214°E)
Time: 01:19:30
(UTC+02:00)

KKS-1 - Pass Details

Date: 03 July 2022
Orbit: 634 x 649 km, 98.2° (Epoch: 18 August)

Event Time Altitude Azimuth Distance (km) Brightness Sun altitude
Rises 22:53:58 0° 23° (NNE) 2,979 ? -6.3°
Reaches altitude 10° 22:56:32 10° 37° (NE) 2,062 ? -6.6°
Maximum altitude 23:00:16 25° 93° (E) 1,301 ? -6.9°
Drops below altitude 10° 23:03:58 10° 150° (SSE) 2,042 ? -7.3°
Enters shadow 23:04:14 - 151° (SSE) 2,130 ? -7.3°
